Caldwell, ID

1:26 PM MST on January 24, 2017 (GMT -0700)
Caldwell Industrial

Weather History for KEUL - June, 2013

Change the Weather History Date:

Thursday, June 13, 2013

  Actual Average (KBOI) Record (KBOI)
Temperature  
Mean Temperature 61 °F -  
Max Temperature 69 °F 77 °F 100 °F (1918)
Min Temperature 53 °F 49 °F 36 °F (1901)
Degree Days  
Heating Degree Days 4    
Growing Degree Days 11 (Base 50)    
Moisture  
Dew Point 34 °F    
Average Humidity 37    
Maximum Humidity 54    
Minimum Humidity 27    
Precipitation  
Precipitation 0.00 in - - ()
Sea Level Pressure  
Sea Level Pressure 30.02 in    
Wind  
Wind Speed 14 mph (WNW)    
Max Wind Speed 22 mph    
Max Gust Speed 32 mph    
Visibility 10 miles    
Events      
Averages and records for this station are not official NWS values.
T = Trace of Precipitation, MM = Missing Value Source: NWS Daily Summary

Daily Weather History Graph

Daily Weather History Graph

Search for Another Location

Airport or City:

Trip Planner

Search our weather history database for the weather conditions in past years. The results will help you decide how hot, cold, wet, or windy it might be!

Date:

Astronomy

Jun. 13, 2013 Rise Set
Actual Time 6:04 AM MDT 9:29 PM MDT
Civil Twilight 5:28 AM MDT 10:05 PM MDT
Nautical Twilight 4:41 AM MDT 10:51 PM MDT
Astronomical Twilight 3:42 AM MDT 11:50 PM MDT
Moon 10:53 AM MDT (6/13) 12:00 AM MDT (6/13)
Length of Visible Light 16h 36m
Length of Day
15h 24m
Waxing Crescent, 22% of the Moon is Illuminated
Jun 13
Waxing Crescent
Jun 16
First Quarter
Jun 23
Full
Jun 29
Last Quarter
Jul 8
New

Hourly Weather History & Observations

Time (MDT) Temp. Dew Point Humidity Pressure Visibility Wind Dir Wind Speed Gust Speed Precip Events Conditions
12:15 AM 62.6 °F 32.0 °F 32% 29.95 in 10.0 mi NW 17.3 mph - N/A   Clear
12:35 AM 60.8 °F 33.8 °F 36% 29.95 in 10.0 mi NW 18.4 mph - N/A   Mostly Cloudy
12:55 AM 60.8 °F 32.0 °F 34% 29.95 in 10.0 mi NW 19.6 mph 24.2 mph N/A   Scattered Clouds
1:15 AM 60.8 °F 30.2 °F 31% 29.95 in 10.0 mi NW 15.0 mph 21.9 mph N/A   Clear
1:35 AM 60.8 °F 32.0 °F 34% 29.95 in 10.0 mi NNW 15.0 mph 20.7 mph N/A   Partly Cloudy
1:55 AM 60.8 °F 33.8 °F 36% 29.95 in 10.0 mi NNW 15.0 mph 24.2 mph N/A   Clear
2:15 AM 60.8 °F 33.8 °F 36% 29.96 in 10.0 mi NNW 11.5 mph - N/A   Mostly Cloudy
2:35 AM 60.8 °F 33.8 °F 36% 29.96 in 10.0 mi NNW 11.5 mph - N/A   Overcast
2:55 AM 60.8 °F 33.8 °F 36% 29.95 in 10.0 mi NNW 10.4 mph - N/A   Overcast
3:15 AM 60.8 °F 33.8 °F 36% 29.96 in 10.0 mi NW 11.5 mph - N/A   Overcast
3:35 AM 59.0 °F 35.6 °F 42% 29.96 in 10.0 mi WNW 15.0 mph - N/A   Overcast
3:55 AM 57.2 °F 35.6 °F 44% 29.97 in 10.0 mi WNW 15.0 mph - N/A   Mostly Cloudy
4:15 AM 57.2 °F 35.6 °F 44% 29.97 in 10.0 mi NW 13.8 mph - N/A   Mostly Cloudy
4:35 AM 57.2 °F 35.6 °F 44% 29.97 in 10.0 mi NW 12.7 mph - N/A   Overcast
4:55 AM 53.6 °F 37.4 °F 54% 29.97 in 10.0 mi WNW 10.4 mph - N/A   Overcast
5:15 AM 55.4 °F 35.6 °F 47% 29.98 in 10.0 mi WNW 8.1 mph - N/A   Overcast
5:35 AM 55.4 °F 35.6 °F 47% 29.98 in 10.0 mi NW 10.4 mph - N/A   Overcast
5:55 AM 53.6 °F 35.6 °F 51% 29.99 in 10.0 mi WNW 18.4 mph 23.0 mph N/A   Overcast
6:15 AM 53.6 °F 35.6 °F 51% 29.99 in 10.0 mi WNW 15.0 mph - N/A   Overcast
6:35 AM 53.6 °F 33.8 °F 47% 29.99 in 10.0 mi WNW 17.3 mph - N/A   Mostly Cloudy
6:55 AM 53.6 °F 33.8 °F 47% 30.00 in 10.0 mi NW 17.3 mph 24.2 mph N/A   Overcast
7:15 AM 53.6 °F 33.8 °F 47% 30.00 in 10.0 mi NW 15.0 mph - N/A   Overcast
7:35 AM 53.6 °F 33.8 °F 47% 30.02 in 10.0 mi WNW 12.7 mph 17.3 mph N/A   Overcast
7:55 AM 55.4 °F 33.8 °F 44% 30.02 in 10.0 mi WNW 12.7 mph - N/A   Overcast
8:15 AM 55.4 °F 33.8 °F 44% 30.02 in 10.0 mi NW 16.1 mph - N/A   Overcast
8:55 AM 55.4 °F 33.8 °F 44% 30.03 in 10.0 mi NW 15.0 mph 21.9 mph N/A   Partly Cloudy
9:15 AM 55.4 °F 33.8 °F 44% 30.04 in 10.0 mi NW 13.8 mph - N/A   Clear
9:35 AM 55.4 °F 33.8 °F 44% 30.04 in 10.0 mi NW 18.4 mph - N/A   Clear
9:55 AM 60.8 °F 35.6 °F 39% 30.04 in 10.0 mi NW 16.1 mph - N/A   Clear
10:15 AM 62.6 °F 35.6 °F 37% 30.04 in 10.0 mi NW 18.4 mph 21.9 mph N/A   Clear
10:35 AM 62.6 °F 35.6 °F 37% 30.04 in 10.0 mi NW 18.4 mph 21.9 mph N/A   Clear
10:55 AM 62.6 °F 35.6 °F 37% 30.04 in 10.0 mi NW 15.0 mph - N/A   Clear
11:15 AM 64.4 °F 35.6 °F 34% 30.04 in 10.0 mi NW 15.0 mph 19.6 mph N/A   Clear
11:35 AM 64.4 °F 35.6 °F 34% 30.05 in 10.0 mi WNW 15.0 mph 18.4 mph N/A   Clear
11:55 AM 66.2 °F 35.6 °F 32% 30.05 in 10.0 mi NW 12.7 mph 18.4 mph N/A   Clear
12:15 PM 66.2 °F 35.6 °F 32% 30.05 in 10.0 mi NNW 11.5 mph 16.1 mph N/A   Clear
12:35 PM 66.2 °F 35.6 °F 32% 30.05 in 10.0 mi WNW 13.8 mph 17.3 mph N/A   Clear
12:55 PM 68.0 °F 33.8 °F 28% 30.04 in 10.0 mi NW 9.2 mph 17.3 mph N/A   Clear
1:15 PM 68.0 °F 33.8 °F 28% 30.04 in 10.0 mi NW 11.5 mph - N/A   Clear
1:35 PM 69.8 °F 33.8 °F 27% 30.04 in 10.0 mi NNW 9.2 mph - N/A   Clear
1:55 PM 69.8 °F 33.8 °F 27% 30.04 in 10.0 mi West 8.1 mph - N/A   Clear
2:15 PM 68.0 °F 33.8 °F 28% 30.04 in 10.0 mi NNW 11.5 mph - N/A   Mostly Cloudy
2:35 PM 69.8 °F 35.6 °F 28% 30.04 in 10.0 mi NNW 9.2 mph 20.7 mph N/A   Partly Cloudy
2:55 PM 69.8 °F 33.8 °F 27% 30.03 in 10.0 mi Calm Calm - N/A   Clear
3:15 PM 69.8 °F 33.8 °F 27% 30.04 in 10.0 mi WSW 9.2 mph - N/A   Clear
3:35 PM 69.8 °F 33.8 °F 27% 30.04 in 10.0 mi North 9.2 mph 25.3 mph N/A   Scattered Clouds
3:55 PM 68.0 °F 33.8 °F 28% 30.04 in 10.0 mi Calm Calm - N/A   Scattered Clouds
4:15 PM 66.2 °F 35.6 °F 32% 30.06 in 10.0 mi West 21.9 mph 32.2 mph N/A   Mostly Cloudy
4:35 PM 66.2 °F 37.4 °F 35% 30.05 in 10.0 mi WNW 9.2 mph - N/A   Mostly Cloudy
4:55 PM 66.2 °F 35.6 °F 32% 30.04 in 10.0 mi Calm Calm - N/A   Clear
5:15 PM 68.0 °F 35.6 °F 30% 30.03 in 10.0 mi NW 3.5 mph - N/A   Clear
5:35 PM 68.0 °F 33.8 °F 28% 30.03 in 10.0 mi SSE 3.5 mph - N/A   Clear
5:55 PM 66.2 °F 33.8 °F 30% 30.03 in 10.0 mi SSW 8.1 mph - N/A   Clear
6:15 PM 66.2 °F 32.0 °F 28% 30.02 in 10.0 mi WSW 5.8 mph - N/A   Scattered Clouds
6:35 PM 66.2 °F 33.8 °F 30% 30.03 in 10.0 mi West 4.6 mph - N/A   Partly Cloudy
6:55 PM 66.2 °F 33.8 °F 30% 30.02 in 10.0 mi South 5.8 mph - N/A   Partly Cloudy
7:15 PM 66.2 °F 33.8 °F 30% 30.02 in 10.0 mi SE 4.6 mph - N/A   Partly Cloudy
7:35 PM 66.2 °F 33.8 °F 30% 30.03 in 10.0 mi SSW 3.5 mph - N/A   Mostly Cloudy
7:55 PM 64.4 °F 32.0 °F 30% 30.04 in 10.0 mi WNW 20.7 mph 27.6 mph N/A   Overcast
8:15 PM 64.4 °F 33.8 °F 32% 30.05 in 10.0 mi WNW 15.0 mph 21.9 mph N/A   Mostly Cloudy
8:35 PM 62.6 °F 35.6 °F 37% 30.06 in 10.0 mi NW 6.9 mph - N/A   Partly Cloudy
8:55 PM 60.8 °F 35.6 °F 39% 30.07 in 10.0 mi WSW 6.9 mph - N/A   Mostly Cloudy
9:15 PM 62.6 °F 32.0 °F 32% 30.08 in 10.0 mi West 15.0 mph 19.6 mph N/A   Mostly Cloudy
9:35 PM 60.8 °F 32.0 °F 34% 30.08 in 10.0 mi West 13.8 mph - N/A   Overcast
9:55 PM 60.8 °F 32.0 °F 34% 30.08 in 10.0 mi West 12.7 mph - N/A   Overcast
10:15 PM 57.2 °F 35.6 °F 44% 30.10 in 10.0 mi NW 15.0 mph 23.0 mph N/A   Mostly Cloudy
10:35 PM 55.4 °F 35.6 °F 47% 30.12 in 10.0 mi WNW 13.8 mph - N/A   Partly Cloudy
10:55 PM 55.4 °F 35.6 °F 47% 30.12 in 10.0 mi WNW 15.0 mph - N/A   Mostly Cloudy
11:35 PM 55.4 °F 35.6 °F 47% 30.13 in 10.0 mi NW 18.4 mph 24.2 mph N/A   Mostly Cloudy
11:55 PM 53.6 °F 35.6 °F 51% 30.14 in 10.0 mi WNW 16.1 mph - N/A   Overcast